Location: Boiro
(42.6475°N, 8.8834°W)
Time: 14:49:56
(UTC+01:00)

Vanguard 3 - Pass Details

Date: 08 December 2021
Orbit: 508 x 3260 km, 33.3° (Epoch: 20 January)

Event Time Altitude Azimuth Distance (km) Brightness Sun altitude
Rises 00:15:15 0° 170° (S) 5,883 - -65.1°
Reaches altitude 10° 00:23:39 10° 142° (SE) 5,540 - -66.1°
Maximum altitude 00:28:15 12° 126° (SE) 5,673 - -66.6°
Drops below altitude 10° 00:33:09 10° 110° (ESE) 6,022 - -67.1°
Exits shadow 00:42:28 - 87° (E) 7,078 11.8 -68.0°
Sets 00:43:37 0° 85° (E) 7,231 11.9 -68.1°
